Regional Weather Roundup
Issued by NWS

Home | Current Version | Previous Version | Text Only | Print | Product List | Glossary Off
Versions: 1 2 3 4 5 6 7 8 9 10 11 12 13 14 15 16 17 18 19 20 21 22 23 24 25 26 27 28 29 30 31 32 33 34 35 36 37 38 39 40 41 42 43 44 45 46 47 48 49 50

000
ASUS45 KBOI 041510
RWRID

IDAHO REGIONAL WEATHER ROUNDUP
NATIONAL WEATHER SERVICE BOISE ID
900 AM MDT TUE AUG 04 2015

NOTE: "FAIR" INDICATES FEW OR NO CLOUDS BELOW 12000 FEET
WITH NO SIGNIFICANT WEATHER AND/OR OBSTRUCTIONS TO VISIBILITY

IDZ012-014-041600-
SOUTHWEST IDAHO


CITY           SKY/WX    TMP DP  RH WIND       PRES   REMARKS
BOISE          MOSUNNY   72  52  49 SE3       30.01R
CALDWELL       SUNNY     66  52  59 E5        30.01R
MOUNTAIN HOME  SUNNY     73  50  45 N3        30.01R
$$

IDZ016-017-041600-
SOUTHCENTRAL IDAHO


CITY           SKY/WX    TMP DP  RH WIND       PRES   REMARKS
BURLEY         SUNNY     68  49  50 W6        30.08S
JEROME         SUNNY     66  52  60 SE5       30.08S
TWIN FALLS     SUNNY     74  45  35 SW9       30.06R
$$

IDZ019>023-041600-
SOUTHEAST IDAHO


CITY           SKY/WX    TMP DP  RH WIND       PRES   REMARKS
IDAHO FALLS    SUNNY     66  53  63 CALM      30.15R
POCATELLO      SUNNY     66  59  78 NW6       30.13R
REXBURG        MOSUNNY   62  57  83 CALM      30.15R
$$

IDZ006-010-011-018-031-032-041600-
CENTRAL IDAHO MOUNTAINS


CITY           SKY/WX    TMP DP  RH WIND       PRES   REMARKS
MCCALL         MOSUNNY   63  44  50 CALM      30.10S
HAILEY         MOSUNNY   66  48  52 W12       30.14F
STANLEY          N/A     59  45  59 VRB5      30.21S
SALMON         MOSUNNY   66  52  59 CALM      30.04S
CHALLIS        PTSUNNY   67  46  47 SE10      30.12F
$$

IDZ002-004-006-007-026-041600-
NORTHERN IDAHO


CITY           SKY/WX    TMP DP  RH WIND       PRES   REMARKS
LEWISTON       MOSUNNY   75  48  38 E7        29.91R
LOWELL           N/A     63  51  65 N3        29.97S
COEUR D`ALENE  MOSUNNY   70  46  43 S7        29.92R
MULLAN PASS    MOSUNNY   60  41  49 VRB3      30.11R
$$



USA.gov is the U.S. government's official web portal to all federal, state and local government web resources and services.